User: anonymous   Login
Location: Krasnoyarskiy Pitomnik
(51.1333°N, 71.6167°E)
Time: 15:12:30
(UTC+00:00)
Language:

CZ-2D R/B - Orbit

View from above orbital plane
View from above orbital plane
View from above satellite
View from above satellite

Ground track
Ground track

The orbit data is extracted from the following two-line orbital elements,

1 28738U 05024B   22019.76453467  .00002431  00000-0  14162-3 0  9992
2 28738  97.3547  33.0983 0011003 341.6065  18.4767 15.12869702909261
Epoch (UTC): 19 January 2022 18:20:55
Eccentricity: 0.0011003
inclination: 97.3547°
perigee height: 520 km
apogee height: 535 km
right ascension of ascending node: 33.0983°
argument of perigee: 341.6065°
revolutions per day: 15.12869702
mean anomaly at epoch: 18.4767°
orbit number at epoch: 90926

The dashed part of the orbit path shows where the satellite is in the earth's shadow,  

DLR